Follow iAlert.com on twitter @ialertcom
Search For Active Alerts in Your Area  
  Hi Guest:  [ Sign-up / Services ] [ Login ]

Current weather by "City, St" or "zip code"  
 

Advertise Here

Current Conditions: Houghton Lake, Roscommon County Airport, MI

Rain Fog/Mist


50.0 F

Last Updated on Oct 23 2017, 1:53 pm EDT
Humidity: 93%
Wind Speed: NE 6.9 mph
Barometer 29.76 in
Dewpoint: 48.0 F
Visibility: 2.50 mi
Precip: 00.22 in
Heat Index: NA
Wind Chill: 47 F
Current conditions at:

Houghton Lake, Roscommon County Airport, MI (KHTL)

Lat: 44.35 Lon: 84.674

Local Radar Image active severe weather and emergency alerts image image weather storm and storm spotter reports image weather observation monitoring service image
Local
Radar
Active
Alerts
Storm Reports Obs
Monitoring

iAlert Weather and Emergency Alert Notification Services:


ialert severe weather and emergency alerts by text message and email ialert daily weather forecast by email and text message service ialert real-time weather-observation monitoring and alert notification service ialert storm report monitoring alert notification

Observation History for Houghton Lake, Roscommon County Airport, MI


Time Wind
(mph)
Vis
(mi)
Weather Precip (in) Temperature (F) Relative
Humidity
Wind
Chill
(°F)
Heat
Index
(°F)
Pressure
Air Dwpt altimeter
(in)
sea level
(mb)
1:53 pm EDT NE 6.9 2.50 Rain Fog/Mist 00.22 50.0 48.0 93% 47 NA 29.76 1008.3
12:53 pm EDT NE 9.2 2.50 Heavy Rain Fog/Mist 00.18 49.0 48.0 97% 45 NA 29.79 1009.1
11:53 am EDT NE 6.9 10.00 Light Rain 00.07 49.0 46.9 93% 46 NA 29.83 1010.6
10:53 am EDT N 8.1 5.00 Rain Fog/Mist 00.15 49.0 46.9 93% 46 NA 29.87 1011.9
9:53 am EDT N 6.9 5.00 Rain Fog/Mist 00.08 49.0 46.9 93% 46 NA 29.89 1012.6
8:53 am EDT NE 10.4 3.00 Rain Fog/Mist 00.10 49.0 46.9 93% 45 NA 29.91 1013.2
7:53 am EDT N 8.1 7.00 Light Rain 00.10 50.0 48.9 96% 47 NA 29.91 1013.0
6:53 am EDT N 5.8 5.00 Rain Fog/Mist 00.23 51.0 48.9 92% 49 NA 29.93 1013.8
5:53 am EDT NE 5.8 7.00 Light Rain 00.14 51.0 50.0 96% 49 NA 29.93 1013.7
4:53 am EDT N 9.2 10.00 Light Rain 00.10 52.0 50.0 93% 49 NA 29.94 1013.8
3:53 am EDT NW 4.6 4.00 Rain Fog/Mist 00.06 52.0 51.1 97% 51 NA 29.96 1014.5
2:53 am EDT N 0.0 3.00 Light Rain Fog/Mist 00.03 52.0 51.1 97% NA NA 29.97 1014.7
1:53 am EDT N 0.0 3.00 Light Rain Fog/Mist 00.02 52.0 51.1 97% NA NA 29.97 1014.8
12:53 am EDT N 3.5 3.00 Light Rain Fog/Mist 00.03 52.0 51.1 97% NA NA 29.98 1015.1
11:53 pm EDT NE 6.9 6.00 Fog/Mist 00.01 53.0 51.1 93% 51 NA 29.99 1015.5
10:53 pm EDT NW 4.6 4.00 Light Rain Fog/Mist 00.05 52.0 51.1 97% 51 NA 30.00 1016.1
9:53 pm EDT NW 4.6 9.00 Light Rain 00.01 53.0 51.1 93% 52 NA 30.01 1016.3
8:53 pm EDT NW 9.2 10.00 Overcast 00.03 53.0 51.1 93% 50 NA 30.00 1016.2
7:53 pm EDT NW 8.1 9.00 Overcast 00.03 60.0 57.9 93% 59 NA 29.98 1015.4
6:53 pm EDT SW 6.9 3.00 Light Rain Fog/Mist 00.20 64.0 62.1 93% NA NA 29.97 1014.9
5:53 pm EDT SW 19.6 G 27.6 2.50 Light Rain -- 68.0 60.1 76% NA NA 29.95 1014.2
4:53 pm EDT S 13.8 G 19.6 8.00 Light Rain Trace 71.0 57.9 63% NA NA 29.92 1013.1
3:53 pm EDT S 16.1 G 23.0 10.00 A Few Clouds -- 73.0 54.0 51% NA NA 29.93 1013.2
2:53 pm EDT S 13.8 G 26.5 10.00 Fair -- 73.0 51.1 46% NA NA 29.95 1013.8

Regional Weather Observation


Houghton Lake, Roscommon County Airport, MI (KHTL)

Rain Fog/Mist
50.0 F

Bellaire, Antrim County Airport, MI (KACB)

Light Rain
50.0 F

Wexford County Airport, MI (KCAD)

Rain
49.0 F

Cherry Capital Airport, MI (KTVC)

Light Rain
53.0 F

Gaylord Regional Airport, MI (KGLR)

Rain Fog/Mist
48.0 F

Charlevoix, Charlevoix Municipal Airport, MI (KCVX)

Overcast
51.0 F

Advertise Here